Weather Service Report


054 
ASUS45 KBOI 210010
RWRID 

IDAHO REGIONAL WEATHER ROUNDUP
NATIONAL WEATHER SERVICE BOISE ID
600 PM MDT FRI JUL 20 2018

NOTE: "FAIR" INDICATES FEW OR NO CLOUDS BELOW 12000 FEET
WITH NO SIGNIFICANT WEATHER AND/OR OBSTRUCTIONS TO VISIBILITY

IDZ012-014-210100-
SOUTHWEST IDAHO

  
CITY           SKY/WX    TMP DP  RH WIND       PRES   REMARKS
BOISE          SUNNY     98  28   8 N14       29.90F HX  92           
CALDWELL       SUNNY     96  34  11 W9        29.88F HX  91           
MOUNTAIN HOME  MOSUNNY   99  30   9 NW15G24   29.90F HX  92           
$$

IDZ016-017-210100-
SOUTHCENTRAL IDAHO

  
CITY           SKY/WX    TMP DP  RH WIND       PRES   REMARKS
BURLEY         MOSUNNY   93  36  13 W5        29.97S                  
JEROME         MOSUNNY   92  40  16 W6        29.98F                  
TWIN FALLS     MOSUNNY   93  40  15 NW6       29.99F                  
$$

IDZ019>023-210100-
SOUTHEAST IDAHO

  
CITY           SKY/WX    TMP DP  RH WIND       PRES   REMARKS
IDAHO FALLS    SUNNY     93  32  11 S13G23    30.02F                  
POCATELLO      SUNNY     96  34  11 SW10      30.00F HX  91           
REXBURG        SUNNY     91  38  15 S10       30.02F                  
$$

IDZ006-010-011-018-031-032-210100-
CENTRAL IDAHO MOUNTAINS

  
CITY           SKY/WX    TMP DP  RH WIND       PRES   REMARKS
MCCALL         SUNNY     85  25  11 SW9G17    30.05S                  
HAILEY         SUNNY     84  36  17 S13G20    30.07F                  
STANLEY          N/A     84  24  11 W9        30.15S                  
SALMON         SUNNY     94  30  10 W8G17     29.89F                  
CHALLIS          N/A     96  24   7 W17G24    29.98F HX  90           
$$

IDZ002-004-006-007-026-210100-
NORTHERN IDAHO

  
CITY           SKY/WX    TMP DP  RH WIND       PRES   REMARKS
LEWISTON       SUNNY     87  29  12 W10       29.95F                  
LOWELL           N/A     92  41  17 CALM      29.92S                  
COEUR D'ALENE  SUNNY     80  36  20 SW12      30.00F                  
MULLAN PASS    SUNNY     65  26  23 VRB5      30.16S                  
$$
  

Return to Home page


Western Regional Climate Center, wrcc@dri.edu